sat.trackr.live / text

‹ back to catalog

STARLINK-11119 [DTC]

NORAD 60121 · 2024-118J

PAYLOAD ACTIVE UNKNOWN

§ Identity

Operator
Country
US
Launch date
2024-06-24
Launch site
AFWTR
Launch vehicle
Mass (kg)
RCS (m²)

Purposes: comms

External: N2YO · Heavens-Above · Gunter

§ Orbital elements

Epoch: 2026-09-21T20:02:39.484608Z

Period
91.72 min
Inclination
53.1597°
Eccentricity
0.0001488
Mean motion
15.69965744 rev/d
Perigee alt
358.0 km
Apogee alt
360.0 km
Semi-major
6,737.1 km
B*
-4.4538e-4
RAAN
334.0775°
Arg perigee
5.2491°
Mean anomaly
354.8542°
Rev number
12,880

§ Raw data

STARLINK-11119 [DTC]1 60121U 24118J   26264.83517922 -.00054769  00000+0 -44538-3 0  99922 60121  53.1597 334.0775 0001488   5.2491 354.8542 15.69965744128809

JSON: /api/v1/satellites/60121 · /tle

For live sub-satellite position, see the globe view (requires WebGL).

§ Visibility from observer

Set your observer location to see the next 7 days of passes ≥ 10°. The values pass through the URL so the page stays shareable.

No JS? Fill the form by hand. The geolocation button needs JavaScript.